{"data":{"norad_id":64833,"epoch":"2026-09-21T20:30:36.380736Z","epoch_age_seconds":54188,"freshness":"FRESH","line1":"1 64833U 25151T   26264.85458774  .00001611  00000+0  24012-3 0  9996","line2":"2 64833  51.8993 133.1299 0000855  92.9049 267.2011 14.79960030 64626","mean_motion":14.7996003,"eccentricity":8.55e-5,"inclination_deg":51.8993,"raan_deg":133.1299,"arg_perigee_deg":92.9049,"mean_anomaly_deg":267.2011,"bstar":0.00024012,"rev_number":6462,"period_min":97.299925052706,"perigee_km":628.85115474728,"apogee_km":630.04945217617,"semimajor_km":7007.5873034617,"source":"CELESTRAK","updated_at":"2026-09-22T09:00:29.977880Z"}}